| time (UTC) | temp F | wind direction | speed MPH | gust MPH | rain 1hr in | rain 24hr in | rain mn in | humidity % | barometer mb |
| 20260905215646 | 70 | 354 | 9.0 | 15.0 | 0.00 | 0.00 | 0.00 | 100 | |
| 20260905215146 | 70 | 333 | 8.0 | 14.0 | 0.00 | 0.00 | 0.00 | 100 | |
| 20260905214645 | 70 | 9 | 8.0 | 15.0 | 0.00 | 0.00 | 0.00 | 100 | |
| 20260905214145 | 70 | 25 | 6.0 | 11.0 | 0.00 | 0.00 | 0.00 | 100 | |
| 20260905213645 | 71 | 52 | 3.0 | 14.0 | 0.00 | 0.00 | 0.00 | 100 | |
| 20260905213145 | 71 | 343 | 9.0 | 13.0 | 0.00 | 0.00 | 0.00 | 100 | |
| 20260905212644 | 72 | 21 | 10.0 | 18.0 | 0.00 | 0.00 | 0.00 | 100 | |
| 20260905212144 | 72 | 8 | 4.0 | 12.0 | 0.00 | 0.00 | 0.00 | 100 | |
| 20260905211644 | 70 | 358 | 6.0 | 12.0 | 0.00 | 0.00 | 0.00 | 100 | |
| 20260905211143 | 71 | 357 | 8.0 | 12.0 | 0.00 | 0.00 | 0.00 | 100 | |
| 20260905210643 | 71 | 350 | 7.0 | 11.0 | 0.00 | 0.00 | 0.00 | 100 | |
| 20260905210143 | 72 | 352 | 9.0 | 10.0 | 0.00 | 0.00 | 0.00 | 100 | |
| 20260905205642 | 71 | 2 | 2.0 | 13.0 | 0.00 | 0.00 | 0.00 | 100 | |
| 20260905205142 | 71 | 23 | 7.0 | 11.0 | 0.00 | 0.00 | 0.00 | 100 | |
| 20260905204642 | 71 | 22 | 7.0 | 11.0 | 0.00 | 0.00 | 0.00 | 100 | |
| 20260905204142 | 71 | 344 | 4.0 | 12.0 | 0.00 | 0.00 | 0.00 | 100 | |
| 20260905203641 | 71 | 25 | 6.0 | 13.0 | 0.00 | 0.00 | 0.00 | 100 | |
| 20260905203141 | 71 | 351 | 6.0 | 11.0 | 0.00 | 0.00 | 0.00 | 100 | |
| 20260905202641 | 71 | 9 | 3.0 | 13.0 | 0.00 | 0.00 | 0.00 | 100 | |
| 20260905202140 | 71 | 9 | 7.0 | 12.0 | 0.00 | 0.00 | 0.00 | 100 | |
| 20260905201640 | 71 | 15 | 4.0 | 9.0 | 0.00 | 0.00 | 0.00 | 100 | |
| 20260905201140 | 72 | 7 | 2.0 | 11.0 | 0.00 | 0.00 | 0.00 | 100 | |
| 20260905200640 | 71 | 351 | 3.0 | 12.0 | 0.00 | 0.00 | 0.00 | 100 | |
| 20260905200139 | 71 | 1 | 6.0 | 11.0 | 0.00 | 0.00 | 0.00 | 100 | |
| 20260905195639 | 71 | 357 | 5.0 | 15.0 | 0.00 | 0.00 | 0.00 | 100 | |
| 20260905195139 | 72 | 0 | 11.0 | 13.0 | 0.00 | 0.00 | 0.00 | 100 | |
| 20260905194638 | 71 | 50 | 7.0 | 8.0 | 0.00 | 0.00 | 0.00 | 100 | |
| 20260905194138 | 71 | 61 | 3.0 | 10.0 | 0.00 | 0.00 | 0.00 | 100 | |
| 20260905193638 | 71 | 23 | 2.0 | 9.0 | 0.00 | 0.00 | 0.00 | 100 | |
| 20260905193137 | 72 | 30 | 5.0 | 7.0 | 0.00 | 0.00 | 0.00 | 100 | |
| 20260905192637 | 71 | 358 | 3.0 | 12.0 | 0.00 | 0.00 | 0.00 | 100 | |
| 20260905192137 | 72 | 5 | 5.0 | 8.0 | 0.00 | 0.00 | 0.00 | 100 | |
| 20260905191637 | 72 | 336 | 3.0 | 9.0 | 0.00 | 0.00 | 0.00 | 100 | |
| 20260905191136 | 72 | 7 | 4.0 | 8.0 | 0.00 | 0.00 | 0.00 | 100 | |
| 20260905190636 | 72 | 9 | 5.0 | 12.0 | 0.00 | 0.00 | 0.00 | 100 | |
| 20260905190136 | 72 | 12 | 6.0 | 7.0 | 0.00 | 0.00 | 0.00 | 100 | |
| 20260905185635 | 72 | 7 | 2.0 | 7.0 | 0.00 | 0.00 | 0.00 | 100 | |
| 20260905185135 | 73 | 9 | 4.0 | 9.0 | 0.00 | 0.00 | 0.00 | 100 | |
| 20260905184635 | 72 | 28 | 3.0 | 5.0 | 0.00 | 0.00 | 0.00 | 100 | |
| 20260905184135 | 73 | 11 | 1.0 | 6.0 | 0.00 | 0.00 | 0.00 | 100 | |
| 20260905183634 | 72 | 18 | 1.0 | 9.0 | 0.00 | 0.00 | 0.00 | 100 | |
| 20260905183134 | 73 | 358 | 4.0 | 11.0 | 0.00 | 0.00 | 0.00 | 100 | |
| 20260905182634 | 71 | 5 | 3.0 | 9.0 | 0.00 | 0.00 | 0.00 | 100 | |
| 20260905182133 | 72 | 59 | 4.0 | 10.0 | 0.00 | 0.00 | 0.00 | 100 | |
| 20260905181633 | 73 | 16 | 8.0 | 11.0 | 0.00 | 0.00 | 0.00 | 100 | |
| 20260905181133 | 73 | 32 | 3.0 | 14.0 | 0.00 | 0.00 | 0.00 | 100 | |
| 20260905180633 | 73 | 33 | 6.0 | 10.0 | 0.00 | 0.00 | 0.00 | 100 | |
| 20260905180132 | 73 | 36 | 5.0 | 12.0 | 0.00 | 0.00 | 0.00 | 100 | |
| 20260905175632 | 73 | 29 | 6.0 | 14.0 | 0.00 | 0.00 | 0.00 | 100 | |
| 20260905175132 | 73 | 12 | 6.0 | 12.0 | 0.00 | 0.00 | 0.00 | 100 | |
| 20260905174631 | 74 | 334 | 1.0 | 17.0 | 0.00 | 0.00 | 0.00 | 100 | |
| 20260905174131 | 73 | 7 | 5.0 | 15.0 | 0.00 | 0.00 | 0.00 | 100 | |
| 20260905173631 | 73 | 357 | 10.0 | 13.0 | 0.00 | 0.00 | 0.00 | 100 | |
| 20260905173130 | 73 | 9 | 3.0 | 17.0 | 0.00 | 0.00 | 0.00 | 100 | |
| 20260905172630 | 74 | 42 | 8.0 | 17.0 | 0.00 | 0.00 | 0.00 | 100 | |
| 20260905172130 | 74 | 326 | 17.0 | 19.0 | 0.00 | 0.00 | 0.00 | 100 | |
| 20260905171630 | 74 | 16 | 7.0 | 20.0 | 0.00 | 0.00 | 0.00 | 100 | |
| 20260905171129 | 74 | 326 | 17.0 | 20.0 | 0.00 | 0.00 | 0.00 | 100 | |
| 20260905170629 | 74 | 11 | 10.0 | 18.0 | 0.00 | 0.00 | 0.00 | 100 | |
| 20260905170129 | 74 | 340 | 4.0 | 18.0 | 0.00 | 0.00 | 0.00 | 100 | |
| 20260905165628 | 74 | 341 | 9.0 | 16.0 | 0.00 | 0.00 | 0.00 | 100 | |
| 20260905165128 | 75 | 32 | 7.0 | 20.0 | 0.00 | 0.00 | 0.00 | 100 | |
| 20260905164628 | 75 | 357 | 7.0 | 18.0 | 0.00 | 0.00 | 0.00 | 100 | |
| 20260905164128 | 75 | 68 | 6.0 | 18.0 | 0.00 | 0.00 | 0.00 | 100 | |
| 20260905163627 | 75 | 16 | 16.0 | 25.0 | 0.00 | 0.00 | 0.00 | 100 | |
| 20260905163127 | 75 | 338 | 4.0 | 17.0 | 0.00 | 0.00 | 0.00 | 100 | |
| 20260905162627 | 76 | 99 | 4.0 | 16.0 | 0.00 | 0.00 | 0.00 | 100 | |
| 20260905162126 | 75 | 30 | 3.0 | 15.0 | 0.00 | 0.00 | 0.00 | 100 | |
| 20260905161626 | 76 | 21 | 12.0 | 20.0 | 0.00 | 0.00 | 0.00 | 100 | |
| 20260905161126 | 76 | 15 | 10.0 | 22.0 | 0.00 | 0.00 | 0.00 | 100 | |
| 20260905160626 | 76 | 9 | 10.0 | 22.0 | 0.00 | 0.00 | 0.00 | 100 | |
| 20260905160125 | 76 | 358 | 2.0 | 18.0 | 0.00 | 0.00 | 0.00 | 100 | |
| 20260905155625 | 76 | 5 | 11.0 | 24.0 | 0.00 | 0.00 | 0.00 | 100 | |
| 20260905155125 | 76 | 92 | 6.0 | 21.0 | 0.00 | 0.00 | 0.00 | 100 | |
| 20260905154624 | 76 | 133 | 2.0 | 21.0 | 0.00 | 0.00 | 0.00 | 100 | |
| 20260905154124 | 77 | 23 | 4.0 | 16.0 | 0.00 | 0.00 | 0.00 | 100 | |
| 20260905153624 | 76 | 35 | 9.0 | 25.0 | 0.00 | 0.00 | 0.00 | 100 | |
| 20260905153123 | 77 | 7 | 20.0 | 26.0 | 0.00 | 0.00 | 0.00 | 100 | |
| 20260905152623 | 77 | 101 | 6.0 | 17.0 | 0.00 | 0.00 | 0.00 | 100 | |
| 20260905152123 | 77 | 11 | 10.0 | 14.0 | 0.00 | 0.00 | 0.00 | 100 | |
| 20260905151623 | 77 | 28 | 1.0 | 13.0 | 0.00 | 0.00 | 0.00 | 100 | |
| 20260905151122 | 77 | 333 | 1.0 | 14.0 | 0.00 | 0.00 | 0.00 | 100 | |
| 20260905150622 | 77 | 15 | 2.0 | 13.0 | 0.00 | 0.00 | 0.00 | 100 | |
| 20260905150122 | 77 | 73 | 4.0 | 16.0 | 0.00 | 0.00 | 0.00 | 100 | |
| 20260905145621 | 78 | 26 | 12.0 | 14.0 | 0.00 | 0.00 | 0.00 | 100 | |
| 20260905145121 | 79 | 88 | 3.0 | 15.0 | 0.00 | 0.00 | 0.00 | 100 | |
| 20260905144621 | 79 | 50 | 2.0 | 21.0 | 0.00 | 0.00 | 0.00 | 100 | |
| 20260905144121 | 79 | 45 | 11.0 | 16.0 | 0.00 | 0.00 | 0.00 | 100 | |
| 20260905143620 | 78 | 64 | 5.0 | 14.0 | 0.00 | 0.00 | 0.00 | 100 | |
| 20260905143120 | 79 | 355 | 11.0 | 19.0 | 0.00 | 0.00 | 0.00 | 100 | |
| 20260905142620 | 78 | 351 | 7.0 | 19.0 | 0.00 | 0.00 | 0.00 | 100 | |
| 20260905142119 | 78 | 35 | 7.0 | 19.0 | 0.00 | 0.00 | 0.00 | 100 | |
| 20260905141619 | 77 | 45 | 2.0 | 15.0 | 0.00 | 0.00 | 0.00 | 100 | |
| 20260905141119 | 78 | 12 | 3.0 | 11.0 | 0.00 | 0.00 | 0.00 | 100 | |
| 20260905140618 | 77 | 309 | 5.0 | 19.0 | 0.00 | 0.00 | 0.00 | 100 | |
| 20260905140118 | 78 | 49 | 8.0 | 16.0 | 0.00 | 0.00 | 0.00 | 100 | |
| 20260905135618 | 78 | 28 | 10.0 | 17.0 | 0.00 | 0.00 | 0.00 | 100 | |
| 20260905135118 | 78 | 18 | 12.0 | 18.0 | 0.00 | 0.00 | 0.00 | 100 | |
| 20260905134617 | 78 | 348 | 6.0 | 20.0 | 0.00 | 0.00 | 0.00 | 100 | |
| 20260905134117 | 78 | 340 | 4.0 | 17.0 | 0.00 | 0.00 | 0.00 | 100 | |
| 20260905133617 | 78 | 2 | 3.0 | 16.0 | 0.00 | 0.00 | 0.00 | 100 | |
| 20260905133116 | 77 | 22 | 16.0 | 19.0 | 0.00 | 0.00 | 0.00 | 100 | |
| 20260905132616 | 78 | 60 | 5.0 | 18.0 | 0.00 | 0.00 | 0.00 | 100 | |
| 20260905132116 | 77 | 12 | 16.0 | 21.0 | 0.00 | 0.00 | 0.00 | 100 | |
| 20260905131616 | 79 | 26 | 2.0 | 14.0 | 0.00 | 0.00 | 0.00 | 100 | |
| 20260905131115 | 78 | 358 | 6.0 | 18.0 | 0.00 | 0.00 | 0.00 | 100 | |
| 20260905130615 | 78 | 25 | 17.0 | 20.0 | 0.00 | 0.00 | 0.00 | 100 | |
| 20260905130115 | 79 | 333 | 7.0 | 15.0 | 0.00 | 0.00 | 0.00 | 100 | |
| 20260905125614 | 78 | 74 | 2.0 | 22.0 | 0.00 | 0.00 | 0.00 | 100 | |
| 20260905125114 | 79 | 330 | 10.0 | 25.0 | 0.00 | 0.00 | 0.00 | 100 | |
| 20260905124614 | 79 | 329 | 10.0 | 15.0 | 0.00 | 0.00 | 0.00 | 100 | |
| 20260905124114 | 79 | 358 | 8.0 | 14.0 | 0.00 | 0.00 | 0.00 | 100 | |
| 20260905123613 | 79 | 7 | 10.0 | 24.0 | 0.00 | 0.00 | 0.00 | 100 | |
| 20260905123113 | 79 | 18 | 7.0 | 12.0 | 0.00 | 0.00 | 0.00 | 100 | |
| 20260905122613 | 77 | 29 | 3.0 | 20.0 | 0.00 | 0.00 | 0.00 | 100 | |
| 20260905122112 | 79 | 42 | 8.0 | 15.0 | 0.00 | 0.00 | 0.00 | 100 | |
| 20260905121612 | 77 | 350 | 10.0 | 22.0 | 0.00 | 0.00 | 0.00 | 100 | |
| 20260905121112 | 77 | 21 | 10.0 | 20.0 | 0.00 | 0.00 | 0.00 | 100 | |
| 20260905120611 | 79 | 0 | 16.0 | 19.0 | 0.00 | 0.00 | 0.00 | 100 | |
| 20260905120111 | 78 | 358 | 6.0 | 22.0 | 0.00 | 0.00 | 0.00 | 100 | |
| 20260905115611 | 80 | 14 | 8.0 | 20.0 | 0.00 | 0.00 | 0.00 | 100 | |
| 20260905115111 | 79 | 84 | 9.0 | 18.0 | 0.00 | 0.00 | 0.00 | 100 | |
| 20260905114610 | 79 | 32 | 15.0 | 16.0 | 0.00 | 0.00 | 0.00 | 100 | |
| 20260905114110 | 79 | 336 | 8.0 | 18.0 | 0.00 | 0.00 | 0.00 | 100 | |
| 20260905113610 | 78 | 7 | 5.0 | 26.0 | 0.00 | 0.00 | 0.00 | 100 | |
| 20260905113109 | 79 | 14 | 9.0 | 23.0 | 0.00 | 0.00 | 0.00 | 100 | |
| 20260905112609 | 78 | 109 | 5.0 | 27.0 | 0.00 | 0.00 | 0.00 | 100 | |
| 20260905112109 | 79 | 11 | 13.0 | 23.0 | 0.00 | 0.00 | 0.00 | 100 | |
| 20260905111609 | 79 | 2 | 10.0 | 15.0 | 0.00 | 0.00 | 0.00 | 100 | |
| 20260905111108 | 79 | 28 | 2.0 | 20.0 | 0.00 | 0.00 | 0.00 | 100 | |
| 20260905110608 | 78 | 313 | 11.0 | 20.0 | 0.00 | 0.00 | 0.00 | 100 | |
| 20260905110108 | 78 | 18 | 12.0 | 19.0 | 0.00 | 0.00 | 0.00 | 100 | |
| 20260905105607 | 77 | 57 | 7.0 | 20.0 | 0.00 | 0.00 | 0.00 | 100 | |
| 20260905105107 | 77 | 59 | 9.0 | 14.0 | 0.00 | 0.00 | 0.00 | 100 | |
| 20260905104607 | 76 | 11 | 11.0 | 12.0 | 0.00 | 0.00 | 0.00 | 100 | |
| 20260905104106 | 75 | 66 | 2.0 | 10.0 | 0.00 | 0.00 | 0.00 | 100 | |
| 20260905103606 | 74 | 80 | 0.0 | 7.0 | 0.00 | 0.00 | 0.00 | 100 | |
| 20260905103106 | 75 | 68 | 0.0 | 3.0 | 0.00 | 0.00 | 0.00 | 100 | |
| 20260905102606 | 76 | 25 | 0.0 | 0.0 | 0.00 | 0.00 | 0.00 | 100 | |
| 20260905102105 | 75 | 25 | 0.0 | 7.0 | 0.00 | 0.00 | 0.00 | 100 | |
| 20260905101605 | 73 | 16 | 3.0 | 5.0 | 0.00 | 0.00 | 0.00 | 100 | |
| 20260905101105 | 73 | 33 | 4.0 | 9.0 | 0.00 | 0.00 | 0.00 | 100 | |
| 20260905100604 | 73 | 30 | 3.0 | 11.0 | 0.00 | 0.00 | 0.00 | 100 | |
| 20260905100104 | 73 | 4 | 4.0 | 8.0 | 0.00 | 0.00 | 0.00 | 100 | |
| 20260905095604 | 71 | 23 | 0.0 | 11.0 | 0.00 | 0.00 | 0.00 | 100 | |
| 20260905095104 | 72 | 116 | 3.0 | 13.0 | 0.00 | 0.00 | 0.00 | 100 | |
| 20260905094603 | 72 | 118 | 3.0 | 8.0 | 0.00 | 0.00 | 0.00 | 100 | |
| 20260905094103 | 72 | 28 | 4.0 | 9.0 | 0.00 | 0.00 | 0.00 | 100 | |
| 20260905093603 | 72 | 23 | 4.0 | 9.0 | 0.00 | 0.00 | 0.00 | 100 | |
| 20260905093102 | 73 | 40 | 7.0 | 7.0 | 0.00 | 0.00 | 0.00 | 100 | |
| 20260905092602 | 71 | 29 | 4.0 | 11.0 | 0.00 | 0.00 | 0.00 | 100 | |
| 20260905092102 | 75 | 21 | 0.0 | 7.0 | 0.00 | 0.00 | 0.00 | 100 | |
| 20260905091602 | 72 | 331 | 4.0 | 12.0 | 0.00 | 0.00 | 0.00 | 100 | |
| 20260905091101 | 74 | 32 | 5.0 | 5.0 | 0.00 | 0.00 | 0.00 | 100 | |
| 20260905090601 | 73 | 63 | 1.0 | 12.0 | 0.00 | 0.00 | 0.00 | 100 | |
| 20260905090101 | 72 | 337 | 7.0 | 15.0 | 0.00 | 0.00 | 0.00 | 100 | |
| 20260905085600 | 74 | 39 | 6.0 | 8.0 | 0.00 | 0.00 | 0.00 | 100 | |
| 20260905085100 | 76 | 15 | 2.0 | 6.0 | 0.00 | 0.00 | 0.00 | 100 | |
| 20260905084600 | 73 | 57 | 0.0 | 7.0 | 0.00 | 0.00 | 0.00 | 100 | |
| 20260905084059 | 76 | 8 | 0.0 | 3.0 | 0.00 | 0.00 | 0.00 | 100 | |
| 20260905083559 | 73 | 2 | 0.0 | 5.0 | 0.00 | 0.00 | 0.00 | 100 | |
| 20260905083059 | 72 | 347 | 4.0 | 8.0 | 0.00 | 0.00 | 0.00 | 100 | |
| 20260905082559 | 73 | 42 | 3.0 | 7.0 | 0.00 | 0.00 | 0.00 | 100 | |
| 20260905082058 | 72 | 28 | 6.0 | 9.0 | 0.00 | 0.00 | 0.00 | 100 | |
| 20260905081558 | 72 | 358 | 2.0 | 7.0 | 0.00 | 0.00 | 0.00 | 100 | |
| 20260905081058 | 71 | 2 | 3.0 | 9.0 | 0.00 | 0.00 | 0.00 | 100 | |
| 20260905080557 | 73 | 137 | 0.0 | 10.0 | 0.00 | 0.00 | 0.00 | 100 | |
| 20260905080057 | 70 | 26 | 1.0 | 9.0 | 0.00 | 0.00 | 0.00 | 100 | |
| 20260905075557 | 70 | 7 | 3.0 | 8.0 | 0.00 | 0.00 | 0.00 | 100 | |
| 20260905075057 | 70 | 64 | 4.0 | 10.0 | 0.00 | 0.00 | 0.00 | 100 | |
| 20260905074556 | 70 | 19 | 8.0 | 9.0 | 0.00 | 0.00 | 0.00 | 100 | |
| 20260905074056 | 71 | 37 | 3.0 | 7.0 | 0.00 | 0.00 | 0.00 | 100 | |
| 20260905073556 | 71 | 74 | 5.0 | 6.0 | 0.00 | 0.00 | 0.00 | 100 | |
| 20260905073055 | 70 | 92 | 1.0 | 8.0 | 0.00 | 0.00 | 0.00 | 100 | |
| 20260905072555 | 69 | 340 | 5.0 | 13.0 | 0.00 | 0.00 | 0.00 | 100 | |
| 20260905072055 | 72 | 49 | 7.0 | 9.0 | 0.00 | 0.00 | 0.00 | 100 | |
| 20260905071554 | 71 | 99 | 3.0 | 9.0 | 0.00 | 0.00 | 0.00 | 100 | |
| 20260905071054 | 71 | 18 | 0.0 | 9.0 | 0.00 | 0.00 | 0.00 | 100 | |
| 20260905070554 | 72 | 116 | 0.0 | 8.0 | 0.00 | 0.00 | 0.00 | 100 | |
| 20260905070054 | 71 | 43 | 0.0 | 7.0 | 0.00 | 0.00 | 0.00 | 100 | |
| 20260905065553 | 72 | 102 | 0.0 | 6.0 | 0.00 | 0.00 | 0.00 | 100 | |
| 20260905065053 | 70 | 227 | 1.0 | 10.0 | 0.00 | 0.00 | 0.00 | 100 | |
| 20260905064553 | 69 | 143 | 6.0 | 9.0 | 0.00 | 0.00 | 0.00 | 100 | |
| 20260905064052 | 69 | 74 | 8.0 | 13.0 | 0.00 | 0.00 | 0.00 | 100 | |
| 20260905063552 | 69 | 209 | 4.0 | 12.0 | 0.00 | 0.00 | 0.00 | 100 | |
| 20260905063052 | 68 | 109 | 4.0 | 15.0 | 0.00 | 0.00 | 0.00 | 100 | |
| 20260905062552 | 69 | 163 | 1.0 | 18.0 | 0.00 | 0.00 | 0.00 | 100 | |
| 20260905062051 | 71 | 7 | 6.0 | 9.0 | 0.00 | 0.00 | 0.00 | 100 | |
| 20260905061551 | 71 | 109 | 1.0 | 13.0 | 0.00 | 0.00 | 0.00 | 100 | |
| 20260905061051 | 71 | 98 | 0.0 | 7.0 | 0.00 | 0.00 | 0.00 | 100 | |
| 20260905060550 | 70 | 50 | 0.0 | 9.0 | 0.00 | 0.00 | 0.00 | 100 | |
| 20260905060050 | 70 | 0 | 2.0 | 9.0 | 0.00 | 0.00 | 0.00 | 100 | |
| 20260905055550 | 72 | 8 | 0.0 | 0.0 | 0.00 | 0.00 | 0.00 | 100 | |
| 20260905055050 | 73 | 8 | 0.0 | 8.0 | 0.00 | 0.00 | 0.00 | 100 | |
| 20260905054549 | 70 | 357 | 3.0 | 6.0 | 0.00 | 0.00 | 0.00 | 100 | |
| 20260905054049 | 72 | 158 | 1.0 | 7.0 | 0.00 | 0.00 | 0.00 | 100 | |
| 20260905053549 | 73 | 66 | 0.0 | 5.0 | 0.00 | 0.00 | 0.00 | 100 | |
| 20260905053048 | 72 | 158 | 0.0 | 4.0 | 0.00 | 0.00 | 0.00 | 100 | |
| 20260905052548 | 72 | 358 | 0.0 | 5.0 | 0.00 | 0.00 | 0.00 | 100 | |
| 20260905052048 | 73 | 81 | 0.0 | 0.0 | 0.00 | 0.00 | 0.00 | 100 | |
| 20260905051547 | 72 | 81 | 0.0 | 6.0 | 0.00 | 0.00 | 0.00 | 100 | |
| 20260905051047 | 73 | 132 | 0.0 | 4.0 | 0.00 | 0.00 | 0.00 | 100 | |
| 20260905050547 | 70 | 85 | 0.0 | 7.0 | 0.00 | 0.00 | 0.00 | 100 | |
| 20260905050047 | 69 | 199 | 2.0 | 6.0 | 0.00 | 0.00 | 0.00 | 100 | |
| 20260905045546 | 70 | 216 | 0.0 | 13.0 | 0.00 | 0.00 | 0.00 | 100 | |
| 20260905045046 | 70 | 82 | 8.0 | 8.0 | 0.00 | 0.00 | 0.00 | 100 | |
| 20260905044546 | 71 | 63 | 0.0 | 5.0 | 0.00 | 0.00 | 0.00 | 100 | |
| 20260905044045 | 71 | 11 | 1.0 | 4.0 | 0.00 | 0.00 | 0.00 | 100 | |
| 20260905043545 | 70 | 71 | 1.0 | 12.0 | 0.00 | 0.00 | 0.00 | 100 | |
| 20260905043045 | 71 | 12 | 0.0 | 7.0 | 0.00 | 0.00 | 0.00 | 100 | |
| 20260905042545 | 70 | 139 | 1.0 | 16.0 | 0.00 | 0.00 | 0.00 | 100 | |
| 20260905042044 | 70 | 92 | 1.0 | 11.0 | 0.00 | 0.00 | 0.00 | 100 | |
| 20260905041544 | 70 | 116 | 5.0 | 16.0 | 0.00 | 0.00 | 0.00 | 100 | |
| 20260905041044 | 70 | 19 | 13.0 | 19.0 | 0.00 | 0.00 | 0.00 | 100 | |
| 20260905040543 | 69 | 198 | 5.0 | 13.0 | 0.00 | 0.00 | 0.00 | 100 | |
| 20260905040043 | 68 | 87 | 5.0 | 19.0 | 0.00 | 0.00 | 0.00 | 100 | |
| 20260905035543 | 68 | 129 | 4.0 | 15.0 | 0.00 | 0.00 | 0.00 | 100 | |
| 20260905035043 | 72 | 9 | 7.0 | 14.0 | 0.00 | 0.00 | 0.00 | 100 | |
| 20260905034542 | 73 | 358 | 4.0 | 11.0 | 0.00 | 0.00 | 0.00 | 100 | |
| 20260905034042 | 74 | 112 | 5.0 | 16.0 | 0.00 | 0.00 | 0.00 | 100 | |
| 20260905033542 | 75 | 19 | 7.0 | 15.0 | 0.00 | 0.00 | 0.00 | 100 | |
| 20260905033041 | 76 | 358 | 1.0 | 6.0 | 0.00 | 0.00 | 0.00 | 100 | |
| 20260905032541 | 75 | 4 | 5.0 | 7.0 | 0.00 | 0.00 | 0.00 | 100 | |
| 20260905032041 | 74 | 23 | 4.0 | 8.0 | 0.00 | 0.00 | 0.00 | 100 | |
| 20260905031540 | 74 | 19 | 3.0 | 8.0 | 0.00 | 0.00 | 0.00 | 100 | |
| 20260905031040 | 74 | 33 | 0.0 | 11.0 | 0.00 | 0.00 | 0.00 | 100 | |
| 20260905030540 | 73 | 241 | 0.0 | 0.0 | 0.00 | 0.00 | 0.00 | 100 | |
| 20260905030040 | 74 | 241 | 0.0 | 0.0 | 0.00 | 0.00 | 0.00 | 100 | |
| 20260905025539 | 74 | 241 | 0.0 | 0.0 | 0.00 | 0.00 | 0.00 | 100 | |
| 20260905025039 | 73 | 241 | 0.0 | 0.0 | 0.00 | 0.00 | 0.00 | 100 | |
| 20260905024539 | 75 | 241 | 0.0 | 0.0 | 0.00 | 0.00 | 0.00 | 100 | |
| 20260905024038 | 74 | 241 | 0.0 | 0.0 | 0.00 | 0.00 | 0.00 | 100 | |
| 20260905023538 | 74 | 241 | 0.0 | 0.0 | 0.00 | 0.00 | 0.00 | 100 | |
| 20260905023038 | 73 | 241 | 0.0 | 0.0 | 0.00 | 0.00 | 0.00 | 100 | |
| 20260905022538 | 74 | 241 | 0.0 | 0.0 | 0.00 | 0.00 | 0.00 | 100 | |
| 20260905022037 | 72 | 241 | 0.0 | 0.0 | 0.00 | 0.00 | 0.00 | 100 | |
| 20260905021537 | 74 | 241 | 0.0 | 0.0 | 0.00 | 0.00 | 0.00 | 100 | |
| 20260905021037 | 73 | 241 | 0.0 | 0.0 | 0.00 | 0.00 | 0.00 | 100 | |
| 20260905020536 | 74 | 241 | 0.0 | 0.0 | 0.00 | 0.00 | 0.00 | 100 | |
| 20260905020036 | 73 | 241 | 0.0 | 2.0 | 0.00 | 0.00 | 0.00 | 100 | |
| 20260905015536 | 73 | 310 | 0.0 | 0.0 | 0.00 | 0.00 | 0.00 | 100 | |
| 20260905015035 | 73 | 310 | 0.0 | 0.0 | 0.00 | 0.00 | 0.00 | 100 | |
| 20260905014535 | 74 | 310 | 0.0 | 0.0 | 0.00 | 0.00 | 0.00 | 100 | |
| 20260905014035 | 73 | 310 | 0.0 | 0.0 | 0.00 | 0.00 | 0.00 | 100 | |
| 20260905013535 | 74 | 310 | 0.0 | 0.0 | 0.00 | 0.00 | 0.00 | 100 | |
| 20260905013034 | 74 | 310 | 0.0 | 0.0 | 0.00 | 0.00 | 0.00 | 100 | |
| 20260905012534 | 72 | 310 | 0.0 | 0.0 | 0.00 | 0.00 | 0.00 | 100 | |
| 20260905012034 | 73 | 310 | 0.0 | 0.0 | 0.00 | 0.00 | 0.00 | 100 | |
| 20260905011533 | 73 | 310 | 0.0 | 0.0 | 0.00 | 0.00 | 0.00 | 100 | |
| 20260905011033 | 74 | 310 | 0.0 | 3.0 | 0.00 | 0.00 | 0.00 | 100 | |
| 20260905010533 | 72 | 309 | 0.0 | 3.0 | 0.00 | 0.00 | 0.00 | 100 | |
| 20260905010033 | 73 | 272 | 0.0 | 3.0 | 0.00 | 0.00 | 0.00 | 100 | |
| 20260905005532 | 73 | 333 | 0.0 | 0.0 | 0.00 | 0.00 | 0.00 | 100 | |
| 20260905005032 | 72 | 333 | 0.0 | 2.0 | 0.00 | 0.00 | 0.00 | 100 | |
| 20260905004532 | 74 | 334 | 2.0 | 2.0 | 0.00 | 0.00 | 0.00 | 100 | |
| 20260905004031 | 74 | 295 | 0.0 | 0.0 | 0.00 | 0.00 | 0.00 | 100 | |
| 20260905003531 | 73 | 295 | 0.0 | 0.0 | 0.00 | 0.00 | 0.00 | 100 | |
| 20260905003031 | 73 | 295 | 0.0 | 0.0 | 0.00 | 0.00 | 0.00 | 100 | |
| 20260905002530 | 74 | 295 | 0.0 | 0.0 | 0.00 | 0.00 | 0.00 | 100 | |
| 20260905002030 | 74 | 295 | 0.0 | 0.0 | 0.00 | 0.00 | 0.00 | 100 | |
| 20260905001530 | 73 | 295 | 0.0 | 0.0 | 0.00 | 0.00 | 0.00 | 100 | |
| 20260905001030 | 73 | 295 | 0.0 | 0.0 | 0.00 | 0.00 | 0.00 | 100 | |
| 20260905000529 | 73 | 295 | 0.0 | 0.0 | 0.00 | 0.00 | 0.00 | 100 | |
| 20260905000029 | 74 | 295 | 0.0 | 3.0 | 0.00 | 0.00 | 0.00 | 100 | |
| 20260904235529 | 75 | 296 | 0.0 | 2.0 | 0.00 | 0.00 | 0.00 | 100 | |
| 20260904235028 | 75 | 327 | 0.0 | 0.0 | 0.00 | 0.00 | 0.00 | 100 | |
| 20260904234528 | 75 | 348 | 0.0 | 3.0 | 0.00 | 0.00 | 0.00 | 100 | |
| 20260904234028 | 75 | 337 | 3.0 | 3.0 | 0.00 | 0.00 | 0.00 | 100 | |
| 20260904233528 | 75 | 333 | 1.0 | 2.0 | 0.00 | 0.00 | 0.00 | 100 | |
| 20260904233027 | 76 | 330 | 0.0 | 0.0 | 0.00 | 0.00 | 0.00 | 100 | |
| 20260904232527 | 75 | 330 | 0.0 | 2.0 | 0.00 | 0.00 | 0.00 | 100 | |
| 20260904232027 | 74 | 1 | 0.0 | 0.0 | 0.00 | 0.00 | 0.00 | 100 | |
| 20260904231526 | 74 | 309 | 0.0 | 4.0 | 0.00 | 0.00 | 0.00 | 100 | |
| 20260904231026 | 76 | 340 | 1.0 | 7.0 | 0.00 | 0.00 | 0.00 | 100 | |
| 20260904230526 | 76 | 330 | 4.0 | 6.0 | 0.00 | 0.00 | 0.00 | 100 | |
| 20260904230026 | 75 | 348 | 2.0 | 5.0 | 0.00 | 0.00 | 0.00 | 100 | |
| 20260904225525 | 76 | 329 | 1.0 | 3.0 | 0.00 | 0.00 | 0.00 | 100 | |
| 20260904225025 | 76 | 312 | 0.0 | 0.0 | 0.00 | 0.00 | 0.00 | 100 | |
| 20260904224525 | 75 | 312 | 0.0 | 0.0 | 0.00 | 0.00 | 0.00 | 100 | |
| 20260904224024 | 75 | 312 | 0.0 | 0.0 | 0.00 | 0.00 | 0.00 | 100 | |
| 20260904223524 | 75 | 312 | 0.0 | 0.0 | 0.00 | 0.00 | 0.00 | 100 | |
| 20260904223024 | 74 | 312 | 0.0 | 0.0 | 0.00 | 0.00 | 0.00 | 100 | |
| 20260904222523 | 75 | 312 | 0.0 | 0.0 | 0.00 | 0.00 | 0.00 | 100 | |
| 20260904222023 | 75 | 312 | 0.0 | 0.0 | 0.00 | 0.00 | 0.00 | 100 | |
| 20260904221523 | 76 | 312 | 0.0 | 0.0 | 0.00 | 0.00 | 0.00 | 100 | |
| 20260904221023 | 76 | 312 | 0.0 | 0.0 | 0.00 | 0.00 | 0.00 | 100 | |
| 20260904220522 | 76 | 312 | 0.0 | 0.0 | 0.00 | 0.00 | 0.00 | 100 |